Location: Allie Creek
(37.5926°N, 89.8526°W)
Time: 15:10:30
(UTC+00:00)

SL-16 R/B - Pass Details

Date: 27 April 2024
Orbit: 841 x 845 km, 71.0° (Epoch: 25 May)

Event Time Altitude Azimuth Distance (km) Brightness Sun altitude
Exits shadow 04:11:16 47° 293° (WNW) 1,114 3.0 -32.8°
Maximum altitude 04:11:24 47° 297° (WNW) 1,113 3.0 -32.8°
Drops below altitude 10° 04:16:50 10° 10° (N) 2,471 5.1 -33.3°
Sets 04:19:24 0° 17° (NNE) 3,410 5.9 -33.6°
